Location: Bismarck
(46.7731°N, 100.8200°W)
Time: 20:18:32
(UTC-06:00)

ISS - Pass Details

Date: 28 November 2017
Orbit: 402 x 407 km, 51.6° (Epoch: 10 December)

Event Time Altitude Azimuth Distance (km) Brightness Sun altitude
Rises 18:56:21 0° 225° (SW) 2,319 0.9 -19.6°
Reaches altitude 10° 18:58:28 10° 218° (SW) 1,462 -0.3 -20.0°
Enters shadow 19:01:01 38° 177° (S) 632 -2.9 -20.4°
Maximum altitude 19:01:36 43° 146° (SE) 580 - -20.5°
Drops below altitude 10° 19:04:45 10° 73° (ENE) 1,467 - -21.0°
Sets 19:06:53 0° 66° (ENE) 2,329 - -21.4°
